{"data":{"norad_id":64704,"intl_designator":"2025-142J","name":"STARLINK-34405","alt_names":[],"object_type":"PAYLOAD","status":"ACTIVE","operator":null,"country":"US","launch_date":"2025-06-28","launch_site_code":"AFWTR","launch_vehicle":null,"mission":null,"orbit_class":"UNKNOWN","rcs_meters":null,"size_class":null,"mass_kg":null,"dimensions":null,"purposes":["comms"],"wikipedia_slug":null,"has_3d_model":false,"image_url":null,"decayed_at":null,"tle_current":{"epoch":"2026-09-20T18:05:34.428480Z","epoch_age_seconds":105996,"freshness":"FRESH","line1":"1 64704U 25142J   26263.75387070  .00015376  00000+0  53790-3 0  9999","line2":"2 64704  70.0017 180.4773 0003127 271.0469  89.0347 15.29600300 68764","mean_motion":15.296003,"eccentricity":0.0003127,"inclination_deg":70.0017,"raan_deg":180.4773,"arg_perigee_deg":271.0469,"mean_anomaly_deg":89.0347,"bstar":0.0005379,"rev_number":6876,"period_min":94.142240950136,"perigee_km":474.86264722514,"apogee_km":479.14985381401,"semimajor_km":6855.1432505196,"source":"CELESTRAK","updated_at":"2026-09-21T09:00:35.404331Z"}}}